Portada
METAR-TAF:

METAR-TAF

Aeroports :

Greenwood County Airport

Greenwood, Carolina del Sud, Estats Units d'Amèrica

latitud: 34-14-50N, longitud: 082-09-17W, altitud: 192 m

Observació

L'informe es va fer fa 22 minuts, a les 14:56 UTC
Vent 9 kt del Nord/Nord-Est
Temperatura 4°C
Humitat 100%
Pressió 1022 hPa
Visibilitat: 9.7 km
Cel ennuvolat a una alçada de 9500 ft
Cel cobert a una alçada de 11000 ft
pluja, boirina

METAR: KGRD 151456Z AUTO 02009KT 6SM -RA BR BKN095 OVC110 04/04 A3018 RMK AO2 SLP223 P0001 60006 T00440044 50003

Hora: 10:18 (15:18 UTC)


TAF: manca

Observacions i pronòstics meteorològics de més de 4000 aeroports (METAR i TAF).

Les estacions disponibles són els punts grocs i vermells al mapa.

Posi el ratolí al punt desitjat per veure el nom de l'estació.

Feu clic per veure les observacions i els pronòstics meteorològics.

Per canviar el mapa: feu clic els botons verds amb una creu de color negre per apropar; al botó verd amb un guió per allunyar la imatge; o en les fletxes verdes per a mapes adjacents.


METAR-TAF: